HS3PIK-2 Weather Reports


time (UTC)temp
F
wind
direction
speed
knots
gust
knots
rain 1hr
in
rain 24hr
in
rain mn
in
humidity
%
barometer
mb
20260508085024 83 0 0.0 0.0 0.00 0.00 0.00 86
20260508084457 83 0 0.0 0.0 0.00 0.00 0.00 85
20260508084128 83 0 0.0 0.0 0.00 0.00 0.00 86
20260508083555 83 0 0.0 0.0 0.00 0.00 0.00 86
20260508083030 82 0 0.0 0.0 0.00 0.00 0.00 86
20260508082500 82 0 0.0 0.0 0.00 0.00 0.00 86
20260508081933 82 0 0.0 0.0 0.00 0.00 0.00 86
20260508081403 82 0 0.0 0.0 0.00 0.00 0.00 86
20260508080833 82 0 0.0 0.0 0.00 0.00 0.00 87
20260508080306 81 0 0.0 0.0 0.00 0.00 0.00 87
20260508075741 81 0 0.0 0.0 0.00 0.00 0.00 86
20260508075211 81 0 0.0 0.0 0.00 0.00 0.00 87
20260508074641 82 0 0.0 0.0 0.00 0.00 0.00 87
20260508074111 81 0 0.0 0.0 0.00 0.00 0.00 87
20260508073546 81 0 0.0 0.0 0.00 0.00 0.00 86
20260508073018 82 0 0.0 0.0 0.00 0.00 0.00 86
20260508072448 82 0 0.0 0.0 0.00 0.00 0.00 85
20260508071918 82 0 0.0 0.0 0.00 0.00 0.00 87
20260508071351 82 0 0.0 0.0 0.00 0.00 0.00 86
20260508070823 82 0 0.0 0.0 0.00 0.00 0.00 86
20260508070253 82 0 0.0 0.0 0.00 0.00 0.00 87
20260508065723 82 0 0.0 0.0 0.00 0.00 0.00 87
20260508065153 81 0 0.0 0.0 0.00 0.00 0.00 86
20260508064626 82 0 0.0 0.0 0.00 0.00 0.00 87
20260508064059 82 0 0.0 0.0 0.00 0.00 0.00 87
20260508063528 82 0 0.0 0.0 0.00 0.00 0.00 86
20260508062958 81 0 0.0 0.0 0.00 0.00 0.00 85
20260508062421 82 0 0.0 0.0 0.00 0.00 0.00 86
20260508061829 81 0 0.0 0.0 0.00 0.00 0.00 84
20260508061302 82 0 0.0 0.0 0.00 0.00 0.00 84
20260508060734 83 0 0.0 0.0 0.00 0.00 0.00 82
20260508060207 84 0 0.0 0.0 0.00 0.00 0.00 81
20260508055635 85 0 0.0 0.0 0.00 0.00 0.00 79
20260508055107 86 0 0.0 0.0 0.00 0.00 0.00 75
20260508054540 88 0 0.0 0.0 0.00 0.00 0.00 66
20260508054010 89 0 0.0 0.0 0.00 0.00 0.00 62
20260508053445 90 0 0.0 0.0 0.00 0.00 0.00 65
20260508052920 90 0 0.0 0.0 0.00 0.00 0.00 65
20260508052355 93 0 0.0 0.0 0.00 0.00 0.00 64
20260508051822 95 0 0.0 0.0 0.00 0.00 0.00 61
20260508051257 96 0 0.0 0.0 0.00 0.00 0.00 59
20260508050730 96 0 0.0 0.0 0.00 0.00 0.00 61
20260508050203 96 0 0.0 0.0 0.00 0.00 0.00 60
20260508045632 96 0 0.0 0.0 0.00 0.00 0.00 62
20260508045444 96 0 0.0 0.0 0.00 0.00 0.00 62
20260508044916 94 0 0.0 0.0 0.00 0.00 0.00 62
20260508044344 95 0 0.0 0.0 0.00 0.00 0.00 62
20260508043816 94 0 0.0 0.0 0.00 0.00 0.00 61
20260508043249 95 0 0.0 0.0 0.00 0.00 0.00 62
20260508042724 95 0 0.0 0.0 0.00 0.00 0.00 60
20260508042156 95 0 0.0 0.0 0.00 0.00 0.00 61
20260508041631 93 0 0.0 0.0 0.00 0.00 0.00 62
20260508041104 94 0 0.0 0.0 0.00 0.00 0.00 63
20260508040542 93 0 0.0 0.0 0.00 0.00 0.00 62
20260508040014 92 0 0.0 0.0 0.00 0.00 0.00 63
20260508035449 92 0 0.0 0.0 0.00 0.00 0.00 61
20260508034924 92 0 0.0 0.0 0.00 0.00 0.00 61
20260508034357 92 0 0.0 0.0 0.00 0.00 0.00 63
20260508033824 92 0 0.0 0.0 0.00 0.00 0.00 62
20260508033257 91 0 0.0 0.0 0.00 0.00 0.00 64
20260508032722 91 0 0.0 0.0 0.00 0.00 0.00 63
20260508032149 91 0 0.0 0.0 0.00 0.00 0.00 63
20260508031619 91 0 0.0 0.0 0.00 0.00 0.00 65
20260508031054 91 0 0.0 0.0 0.00 0.00 0.00 65
20260508030527 91 0 0.0 0.0 0.00 0.00 0.00 68
20260508025957 90 0 0.0 0.0 0.00 0.00 0.00 68
20260508025430 90 0 0.0 0.0 0.00 0.00 0.00 68
20260508024902 90 0 0.0 0.0 0.00 0.00 0.00 69
20260508024330 89 0 0.0 0.0 0.00 0.00 0.00 69
20260508023759 89 0 0.0 0.0 0.00 0.00 0.00 69
20260508023229 89 0 0.0 0.0 0.00 0.00 0.00 69
20260508022702 88 0 0.0 0.0 0.00 0.00 0.00 71
20260508022132 88 0 0.0 0.0 0.00 0.00 0.00 71
20260508021602 88 0 0.0 0.0 0.00 0.00 0.00 72
20260508021035 88 0 0.0 0.0 0.00 0.00 0.00 71
20260508020504 88 0 0.0 0.0 0.00 0.00 0.00 72
20260508015937 87 0 0.0 0.0 0.00 0.00 0.00 73
20260508015402 87 0 0.0 0.0 0.00 0.00 0.00 73
20260508014837 87 0 0.0 0.0 0.00 0.00 0.00 77
20260508014309 87 0 0.0 0.0 0.00 0.00 0.00 76
20260508013739 86 0 0.0 0.0 0.00 0.00 0.00 77
20260508013209 86 0 0.0 0.0 0.00 0.00 0.00 78
20260508012639 85 0 0.0 0.0 0.00 0.00 0.00 80
20260508012109 85 0 0.0 0.0 0.00 0.00 0.00 80
20260508011539 84 0 0.0 0.0 0.00 0.00 0.00 81
20260508011012 84 0 0.0 0.0 0.00 0.00 0.00 81
20260508010445 84 0 0.0 0.0 0.00 0.00 0.00 82
20260508005920 83 0 0.0 0.0 0.00 0.00 0.00 84
20260508005355 82 0 0.0 0.0 0.00 0.00 0.00 85
20260508004821 81 0 0.0 0.0 0.00 0.00 0.00 85
20260508003705 82 0 0.0 0.0 0.00 0.00 0.00 86
20260508003140 81 0 0.0 0.0 0.00 0.00 0.00 87
20260508002610 80 0 0.0 0.0 0.00 0.00 0.00 88
20260508001434 80 0 0.0 0.0 0.00 0.00 0.00 90
20260508000906 78 0 0.0 0.0 0.00 0.00 0.00 90
20260507162905 86 0 0.0 0.0 0.00 0.00 0.00 73
20260507162337 85 0 0.0 0.0 0.00 0.00 0.00 72
20260507161815 85 0 0.0 0.0 0.00 0.00 0.00 72
20260507161248 85 0 0.0 0.0 0.00 0.00 0.00 71
20260507160720 85 0 0.0 0.0 0.00 0.00 0.00 70
20260507160148 86 0 0.0 0.0 0.00 0.00 0.00 72
20260507155618 86 0 0.0 0.0 0.00 0.00 0.00 73
20260507155048 85 0 0.0 0.0 0.00 0.00 0.00 73
20260507154524 85 0 0.0 0.0 0.00 0.00 0.00 73
20260507153955 85 0 0.0 0.0 0.00 0.00 0.00 74
20260507153650 85 0 0.0 0.0 0.00 0.00 0.00 74
20260507153428 85 0 0.0 0.0 0.00 0.00 0.00 74
20260507152900 85 0 0.0 0.0 0.00 0.00 0.00 73
20260507152330 86 0 0.0 0.0 0.00 0.00 0.00 77
20260507151803 85 0 0.0 0.0 0.00 0.00 0.00 78
20260507151233 85 0 0.0 0.0 0.00 0.00 0.00 78
20260507150708 86 0 0.0 0.0 0.00 0.00 0.00 78
20260507150143 85 0 0.0 0.0 0.00 0.00 0.00 77
20260507145613 86 0 0.0 0.0 0.00 0.00 0.00 77
20260507145045 85 0 0.0 0.0 0.00 0.00 0.00 78
20260507144521 85 0 0.0 0.0 0.00 0.00 0.00 78
20260507143956 86 0 0.0 0.0 0.00 0.00 0.00 76
20260507143428 87 0 0.0 0.0 0.00 0.00 0.00 75
20260507142901 87 0 0.0 0.0 0.00 0.00 0.00 76
20260507142336 87 0 0.0 0.0 0.00 0.00 0.00 77
20260507141808 87 0 0.0 0.0 0.00 0.00 0.00 78
20260507141236 87 0 0.0 0.0 0.00 0.00 0.00 78
20260507140706 87 0 0.0 0.0 0.00 0.00 0.00 79
20260507140141 87 0 0.0 0.0 0.00 0.00 0.00 79
20260507135611 87 0 0.0 0.0 0.00 0.00 0.00 79
20260507135039 87 0 0.0 0.0 0.00 0.00 0.00 79
20260507134511 86 0 0.0 0.0 0.00 0.00 0.00 81
20260507133946 85 0 0.0 0.0 0.00 0.00 0.00 84
20260507133416 84 0 0.0 0.0 0.00 0.00 0.00 85
20260507132849 83 0 0.0 0.0 0.00 0.00 0.00 85
20260507132316 83 0 0.0 0.0 0.00 0.00 0.00 85
20260507131749 83 0 0.0 0.0 0.00 0.00 0.00 85
20260507131219 83 0 0.0 0.0 0.00 0.00 0.00 85
20260507130651 84 0 0.0 0.0 0.00 0.00 0.00 85
20260507130121 83 0 0.0 0.0 0.00 0.00 0.00 85
20260507125556 83 0 0.0 0.0 0.00 0.00 0.00 85
20260507125028 83 0 0.0 0.0 0.00 0.00 0.00 85
20260507124500 84 0 0.0 0.0 0.00 0.00 0.00 85
20260507123933 84 0 0.0 0.0 0.00 0.00 0.00 85
20260507123405 83 0 0.0 0.0 0.00 0.00 0.00 86
20260507122837 83 0 0.0 0.0 0.00 0.00 0.00 85
20260507122308 83 0 0.0 0.0 0.00 0.00 0.00 85
20260507121742 83 0 0.0 0.0 0.00 0.00 0.00 85
20260507121214 83 0 0.0 0.0 0.00 0.00 0.00 85
20260507120647 84 0 0.0 0.0 0.00 0.00 0.00 85
20260507120124 84 0 0.0 0.0 0.00 0.00 0.00 85
20260507115557 84 0 0.0 0.0 0.00 0.00 0.00 84
20260507115029 84 0 0.0 0.0 0.00 0.00 0.00 84
20260507114459 84 0 0.0 0.0 0.00 0.00 0.00 84
20260507113934 84 0 0.0 0.0 0.00 0.00 0.00 84
20260507113407 84 0 0.0 0.0 0.00 0.00 0.00 84
20260507112837 84 0 0.0 0.0 0.00 0.00 0.00 84
20260507112309 85 0 0.0 0.0 0.00 0.00 0.00 83
20260507111741 85 0 0.0 0.0 0.00 0.00 0.00 83
20260507111209 85 0 0.0 0.0 0.00 0.00 0.00 84
20260507110643 85 0 0.0 0.0 0.00 0.00 0.00 83
20260507110111 85 0 0.0 0.0 0.00 0.00 0.00 84
20260507105541 85 0 0.0 0.0 0.00 0.00 0.00 83
20260507105011 86 0 0.0 0.0 0.00 0.00 0.00 82
20260507104448 86 0 0.0 0.0 0.00 0.00 0.00 81
20260507103918 86 0 0.0 0.0 0.00 0.00 0.00 81
20260507103353 86 0 0.0 0.0 0.00 0.00 0.00 81
20260507102820 87 0 0.0 0.0 0.00 0.00 0.00 80
20260507102253 86 0 0.0 0.0 0.00 0.00 0.00 80
20260507101725 87 0 0.0 0.0 0.00 0.00 0.00 78
20260507101152 87 0 0.0 0.0 0.00 0.00 0.00 79
20260507100628 86 0 0.0 0.0 0.00 0.00 0.00 78
20260507100105 86 0 0.0 0.0 0.00 0.00 0.00 80
20260507095533 85 0 0.0 0.0 0.00 0.00 0.00 81
20260507095008 84 0 0.0 0.0 0.00 0.00 0.00 81
20260507094438 83 0 0.0 0.0 0.00 0.00 0.00 82
20260507093907 84 0 0.0 0.0 0.00 0.00 0.00 82
20260507093343 84 0 0.0 0.0 0.00 0.00 0.00 82
20260507092818 85 0 0.0 0.0 0.00 0.00 0.00 80
20260507092250 86 0 0.0 0.0 0.00 0.00 0.00 80
20260507091725 85 0 0.0 0.0 0.00 0.00 0.00 79
20260507091200 86 0 0.0 0.0 0.00 0.00 0.00 78
20260507090630 87 0 0.0 0.0 0.00 0.00 0.00 79
20260507090106 87 0 0.0 0.0 0.00 0.00 0.00 79
20260507085540 87 0 0.0 0.0 0.00 0.00 0.00 78